Temperature
14 14 15 16 16 16 18 20 22 23 23 23 23 23 21 20 20 17 16 16 16 16 16 16 17 17 16 16 16 16 17 17 17 17 17 16 16 16 16 16 16 16 16 16 16 16 16 16 15
13 14 15 16 16 17 19 20 22 23 22 22 22 22 20 18 16 15 15 15 15 16 16 16 16 16 16 16 16 16 16 16 16 16 16 16 16 16 16 16 16 16 16 16 16 16 15 15 15
13 14 15 16 16 18 20 21 21 21 21 21 21 20 19 17 16 15 15 15 15 15 16 16 16 16 16 16 16 16 16 16 16 16 16 16 16 16 16 16 16 16 16 16 16 16 16 15 15
13 14 15 16 17 19 21 21 21 20 20 21 20 18 16 15 14 14 14 15 15 15 15 16 16 16 16 16 16 16 16 16 16 16 16 16 16 16 16 16 16 16 16 16 16 16 16 15 15
12 14 14 15 17 20 21 21 20 19 19 20 19 17 14 14 14 14 14 15 15 15 15 15 15 16 16 16 16 16 16 16 16 16 16 16 16 16 16 16 16 16 16 16 16 15 15 15 15
13 14 14 15 17 19 20 20 20 20 20 20 18 16 13 13 13 14 14 14 14 15 15 15 15 15 15 15 16 16 16 16 16 16 16 16 16 16 16 16 16 16 16 15 15 15 15 15 15
13 14 15 16 17 18 19 20 20 19 19 19 18 16 13 13 13 13 14 14 14 14 14 15 15 15 15 15 15 15 15 15 15 15 15 15 15 15 15 15 15 16 15 15 15 15 15 15 15
13 14 15 16 17 17 19 19 19 19 18 17 17 15 13 13 13 13 13 14 14 14 14 14 15 15 15 15 15 15 15 15 15 15 15 15 15 15 15 15 15 15 15 15 15 15 15 15 15
12 13 14 16 16 16 18 17 17 17 16 15 14 15 13 13 13 13 13 13 13 14 14 14 14 15 15 15 15 15 15 15 15 15 15 15 15 15 15 15 15 15 15 15 15 15 15 15 15
12 12 14 15 16 16 17 16 16 16 15 14 13 13 13 13 13 13 13 13 13 13 14 14 14 14 14 14 14 15 15 15 15 15 14 14 14 14 14 14 15 15 15 15 15 15 15 15 15
13 13 13 14 15 16 16 16 16 16 15 14 13 12 12 12 12 12 12 13 13 13 13 14 14 14 14 14 14 14 14 14 14 14 14 14 14 14 14 14 14 14 14 14 14 14 14 14 14
12 13 13 13 14 15 15 15 15 15 15 14 13 12 12 12 12 12 12 12 12 13 13 13 14 14 14 14 14 14 14 14 14 14 14 14 14 14 14 14 14 14 14 14 14 14 14 14 14
12 12 12 13 13 14 14 14 14 13 13 13 12 12 12 11 11 11 12 12 12 12 13 13 13 13 13 13 14 13 13 13 13 13 13 13 13 13 13 13 13 13 13 13 13 13 13 13 13
12 12 12 13 13 13 14 13 13 13 12 12 12 12 11 11 11 11 11 11 11 12 12 12 13 13 13 13 13 13 13 13 13 13 13 13 13 13 13 13 13 13 13 13 13 13 13 13 13
12 12 12 13 13 13 13 12 12 12 12 12 12 11 11 11 11 11 11 11 11 11 12 12 12 13 13 13 13 13 13 12 12 12 12 12 13 13 13 12 12 12 12 12 12 12 12 12 13
13 12 11 12 13 13 13 11 12 12 12 12 12 11 11 10 10 10 10 11 11 11 11 12 12 12 12 12 12 12 12 12 12 12 12 12 12 12 12 12 12 12 12 12 12 12 12 12 12
12 12 11 12 13 13 13 12 12 13 13 13 12 12 11 10 10 10 10 10 11 11 11 11 11 11 12 12 12 12 12 11 11 11 11 11 11 11 11 12 12 12 11 11 11 11 11 11 11
11 12 12 12 13 13 12 12 12 12 13 13 13 12 12 11 10 10 10 10 10 10 10 11 11 11 11 11 11 11 11 11 11 11 11 11 11 11 11 11 11 11 11 11 11 11 11 11 11
13 13 12 12 13 13 12 12 12 13 13 13 13 13 12 11 10 10 10 10 10 10 10 10 10 11 11 11 11 11 11 10 10 10 10 10 10 10 10 10 10 10 10 10 10 10 10 10 10
13 12 12 12 13 13 12 12 12 12 12 13 13 13 12 11 11 10 9 9 9 10 10 10 10 10 10 10 10 10 10 10 9 9 9 9 10 10 10 10 10 10 9 9 9 9 9 9 9
12 12 12 12 12 12 12 11 12 13 13 13 13 13 12 12 11 10 9 9 9 9 9 9 10 10 10 10 9 9 9 9 9 9 9 9 9 9 9 9 9 9 9 9 9 9 9 9 9
11 12 12 12 11 11 12 10 12 12 12 12 13 12 12 12 11 10 9 9 9 9 9 9 9 9 9 9 9 9 9 8 8 8 8 8 8 8 9 9 9 8 8 8 8 8 8 8 8
10 12 12 12 11 11 12 10 11 13 12 12 12 12 12 11 11 10 9 9 9 9 9 9 9 9 9 9 9 8 8 8 8 8 8 8 8 8 8 8 8 8 8 8 8 8 8 7 7
11 11 11 11 10 10 11 11 11 11 12 13 12 12 12 11 10 10 9 9 8 8 9 9 8 8 9 8 8 8 8 8 8 8 8 8 7 7 7 8 8 8 7 7 7 7 7 7 7
11 10 9 9 9 9 11 10 10 12 13 12 12 12 11 11 10 10 9 8 8 8 8 8 8 8 8 8 8 8 7 7 7 7 7 7 7 7 7 7 7 7 7 7 7 7 7 7 6
10 10 9 9 9 10 10 9 10 12 12 12 12 11 11 10 10 9 9 8 8 8 8 8 8 8 8 8 8 7 7 7 7 7 7 6 6 6 6 7 6 6 6 6 6 6 6 6 6
10 9 10 9 9 9 10 11 12 12 11 11 11 11 11 10 10 9 9 8 8 8 8 8 8 8 8 7 7 7 7 7 6 6 6 6 6 6 6 6 6 6 6 6 6 6 6 6 5
9 10 9 8 9 9 11 11 10 11 11 11 11 11 10 10 9 9 8 8 8 8 8 8 8 7 7 7 7 7 7 7 6 6 6 6 6 6 5 5 5 5 5 5 5 5 5 5 5
9 9 9 9 9 8 9 10 11 11 11 11 11 11 11 10 9 9 8 8 8 8 8 8 8 7 7 7 7 7 7 6 6 6 6 6 6 5 5 5 5 5 5 5 5 5 5 5 4
9 10 9 8 8 9 8 8 11 11 11 11 11 11 10 10 9 9 9 8 8 8 8 7 7 7 7 7 7 6 6 6 6 6 6 6 5 5 5 5 5 5 4 4 4 4 4 4 4
Wind_Speed
10 12 8 4 4 6 12 9 6 5 3 1 5 5 6 6 5 10 4 5 7 9 12 11 11 10 10 10 10 9 9 8 7 7 7 6 6 5 4 4 4 4 4 4 4 4 5 6 7
10 9 6 4 6 9 9 10 8 4 5 5 6 6 7 7 8 8 5 5 8 11 12 11 11 10 10 9 9 9 8 7 7 6 6 6 5 5 4 4 3 3 3 3 4 4 4 5 6
10 9 5 5 8 11 8 9 6 6 9 5 4 6 5 6 7 5 4 4 9 11 12 12 12 11 10 9 8 8 7 6 6 6 5 5 4 4 3 3 3 4 3 3 3 3 3 4 4
5 4 4 7 13 11 7 3 8 8 6 5 6 7 6 7 5 5 4 5 9 10 13 12 12 11 10 10 8 7 7 6 5 5 4 4 4 4 4 4 4 3 3 2 2 2 3 4 4
4 4 6 8 12 9 3 5 7 10 7 6 7 6 6 6 8 7 6 7 9 8 11 12 12 11 10 9 8 8 7 6 5 4 3 3 3 3 3 3 3 2 2 2 1 1 2 3 4
4 4 6 10 10 7 3 5 6 7 7 6 7 6 6 5 6 6 7 8 8 8 9 10 11 11 10 9 8 7 6 5 4 3 2 2 2 2 2 2 1 1 1 1 1 2 3 3 4
4 4 8 9 8 7 5 5 5 7 8 5 4 6 7 6 5 5 7 8 8 9 8 8 8 9 9 8 8 6 5 4 3 2 1 1 2 2 2 1 1 1 2 2 2 3 3 4 5
3 3 7 8 8 6 5 3 3 5 7 6 5 6 7 7 5 6 8 8 8 8 7 8 8 8 7 6 6 5 4 3 2 1 1 0 2 4 4 3 3 3 3 4 4 4 5 6 6
3 3 5 5 4 5 6 4 6 7 9 6 8 9 11 10 7 7 7 7 8 8 6 7 7 7 7 5 4 3 2 2 2 1 1 1 2 3 4 4 4 4 5 5 6 6 7 7 8
2 2 2 4 2 5 6 6 4 4 8 7 8 11 11 8 8 8 7 7 8 8 7 7 7 7 7 5 5 4 3 2 2 3 3 3 3 3 3 3 5 6 6 7 7 8 8 8 8
1 1 3 7 6 6 6 6 5 6 5 7 10 11 9 8 8 8 8 8 8 7 7 6 6 7 7 6 5 4 4 4 4 5 5 5 5 4 3 2 2 4 5 5 7 8 8 8 8
1 4 3 4 5 5 4 5 3 4 6 9 11 11 9 9 8 8 8 7 7 7 7 6 6 6 6 6 5 5 5 4 4 6 6 6 4 4 4 3 2 3 4 4 4 5 7 8 8
3 3 4 4 5 6 7 6 6 8 9 10 11 10 10 9 8 8 7 7 7 7 6 6 6 6 6 5 4 5 5 4 5 5 6 7 4 3 4 4 4 4 5 4 4 4 5 5 6
5 5 5 5 5 5 7 6 3 6 8 9 9 8 8 8 8 7 6 6 6 6 6 5 5 6 6 5 4 4 5 5 5 5 5 6 6 5 3 3 3 4 5 5 5 5 4 4 4
8 7 6 4 3 4 5 5 4 7 8 8 7 7 8 7 7 6 6 5 6 5 5 5 5 5 5 5 5 4 5 5 4 4 6 6 7 6 5 3 3 4 6 6 5 5 5 4 4
6 4 4 3 2 1 2 3 5 7 8 7 7 7 7 6 6 6 6 5 5 5 5 5 5 5 5 5 5 4 5 5 5 6 6 7 8 8 6 4 3 6 6 5 3 3 3 4 4
3 3 5 4 2 2 2 3 5 6 7 7 7 7 7 7 6 6 6 5 5 4 4 4 4 5 5 4 4 4 4 5 6 7 7 8 9 9 7 4 5 7 5 3 4 4 3 4 5
4 4 5 5 2 2 3 4 5 5 6 6 6 7 7 7 7 6 6 5 5 4 3 3 4 4 4 3 3 3 4 4 6 6 8 9 9 9 8 5 6 7 4 3 4 5 4 4 5
3 5 6 4 1 1 4 4 5 6 5 5 6 6 7 7 7 7 6 6 5 4 3 3 3 4 4 3 3 3 3 4 3 4 7 9 9 9 7 5 6 5 4 4 5 4 5 4 4
4 6 5 4 2 1 2 3 5 7 7 6 5 5 6 6 7 7 6 6 4 4 3 3 3 3 3 3 2 1 2 2 1 3 5 7 8 8 7 5 4 5 4 5 5 4 3 4 3
6 4 4 3 2 2 1 2 5 6 7 6 5 4 5 6 7 7 6 6 5 4 3 2 2 2 2 3 2 3 2 2 2 3 3 5 7 7 7 6 5 4 4 4 5 5 4 4 4
4 4 3 2 1 1 2 2 4 7 7 7 6 5 5 6 6 6 6 6 5 5 4 2 1 1 1 1 2 2 2 2 2 2 2 3 5 6 7 7 6 5 4 4 5 5 4 4 4
3 3 2 1 0 1 2 2 4 6 6 7 7 7 6 5 6 6 6 6 5 5 4 2 2 1 1 0 1 1 2 2 2 3 3 3 3 5 6 7 6 5 4 5 5 5 5 4 4
1 1 2 1 1 1 3 3 4 3 5 5 6 7 6 6 5 5 6 6 5 5 4 3 2 2 1 1 1 1 2 2 3 3 3 3 2 3 5 6 5 5 4 5 5 5 5 4 4
3 2 2 1 1 3 2 2 5 1 3 3 4 5 6 6 5 5 6 6 5 5 5 4 3 2 2 2 1 1 2 2 2 3 2 3 2 3 4 4 4 4 5 5 5 4 4 4 4
3 3 2 0 1 1 1 4 4 3 5 5 4 4 5 5 5 5 6 6 6 6 5 5 4 3 3 2 2 2 2 2 1 2 2 2 2 2 3 4 4 4 5 5 4 3 4 4 4
2 1 2 1 3 3 4 4 2 5 4 3 4 4 4 4 5 5 5 6 6 6 6 5 5 4 4 3 3 3 2 2 2 2 1 1 2 2 3 3 3 4 4 4 4 3 4 4 3
3 3 1 0 1 3 4 4 3 4 4 4 4 4 4 4 4 5 5 5 5 5 5 5 5 5 4 4 3 3 3 3 3 2 2 2 2 2 3 3 3 3 3 4 3 3 4 4 4
2 2 2 2 1 2 4 3 1 3 3 3 3 3 3 4 5 5 4 5 5 5 5 5 5 5 5 5 4 4 3 3 3 2 2 2 2 2 2 2 2 3 3 3 3 4 4 4 4
2 3 2 1 3 3 3 5 3 5 4 2 1 2 2 3 3 4 4 5 5 5 5 6 5 5 5 5 4 4 4 4 3 3 3 2 2 2 2 2 2 2 3 3 3 4 4 4 4
Wind_Direction
270 256 237 225 217 225 234 233 227 212 206 53 32 49 68 38 48 113 121 72 93 102 107 110 111 112 109 109 112 110 109 106 102 99 96 93 90 92 97 100 104 111 113 98 98 101 104 101 101
267 244 229 224 220 220 223 217 228 184 101 68 47 60 67 70 70 92 82 66 93 95 100 103 102 105 106 107 112 113 112 111 106 100 94 91 86 83 88 91 90 105 120 114 108 108 110 112 110
265 245 220 215 226 224 218 190 188 105 97 94 64 44 57 66 76 76 72 87 92 91 95 95 96 95 100 103 106 112 112 113 110 105 97 92 86 81 77 82 92 91 102 113 122 128 134 136 132
238 224 239 232 227 232 243 167 132 121 104 105 103 83 68 39 52 79 80 83 90 89 93 95 94 91 93 95 97 105 108 110 109 106 101 96 88 84 74 71 80 91 101 115 124 141 169 173 170
235 222 214 225 231 224 225 87 99 123 132 141 118 97 80 65 69 77 70 74 82 82 90 98 96 91 93 93 91 94 100 104 106 107 110 114 101 93 86 76 75 87 109 125 160 181 189 193 200
220 227 211 212 217 214 174 119 129 130 132 130 115 103 96 92 78 72 74 74 74 81 87 99 98 96 97 98 93 92 94 98 102 104 108 133 128 114 106 88 86 110 157 192 210 230 226 224 229
234 236 228 210 203 200 171 145 154 136 131 122 110 100 118 107 88 82 82 78 72 68 69 72 83 91 95 98 98 94 94 95 95 92 93 166 177 177 172 158 199 231 239 236 231 236 234 237 244
275 270 245 223 198 190 141 124 71 119 101 49 38 122 136 129 118 97 85 79 75 68 62 55 59 58 66 80 93 92 95 98 105 92 12 262 225 224 216 212 227 237 248 246 239 240 241 244 244
283 258 241 227 195 144 127 93 46 56 83 65 41 71 109 124 124 109 96 85 76 67 58 52 50 44 40 45 62 71 91 76 62 342 308 270 264 251 234 225 223 231 244 248 243 242 245 246 246
230 245 302 335 27 125 133 116 112 99 106 100 88 85 103 116 118 106 95 85 75 64 54 45 40 32 28 30 37 33 38 41 17 4 360 325 311 302 287 244 226 237 247 251 247 247 248 246 243
277 356 13 11 39 108 127 122 139 137 136 136 132 127 122 117 108 98 86 80 76 70 56 44 37 32 23 15 24 19 19 28 16 14 360 341 336 336 343 328 248 252 254 256 257 247 247 245 243
58 40 48 29 28 82 106 113 102 88 94 104 115 124 120 114 104 97 90 82 78 71 59 45 37 34 26 19 12 15 16 23 19 12 1 352 351 348 344 333 323 290 277 270 267 254 252 250 249
101 66 63 52 45 69 91 92 86 78 89 99 110 113 114 109 98 89 87 85 79 74 61 46 38 34 23 18 11 20 8 11 11 11 3 2 356 343 341 333 332 319 316 306 289 279 277 270 262
117 107 102 94 86 90 106 97 89 109 109 114 117 116 114 111 108 102 92 85 76 68 59 43 39 30 24 21 13 11 5 1 4 4 0 2 354 343 339 327 326 324 321 313 307 297 297 289 286
129 116 106 104 107 118 112 98 132 139 135 134 131 123 117 114 110 105 96 84 74 65 55 41 40 30 22 18 6 7 1 1 4 2 3 6 360 350 344 331 322 324 326 326 318 307 304 298 295
157 135 120 113 123 161 150 136 140 149 152 151 144 137 131 123 116 108 100 91 79 73 58 39 32 26 23 14 355 354 1 5 6 9 12 8 2 355 346 337 326 333 335 330 313 302 304 301 300
185 165 131 126 151 179 169 144 141 161 164 161 158 154 146 141 136 123 111 102 88 75 67 54 37 26 16 360 345 355 5 12 11 11 15 10 4 357 348 342 341 343 342 327 319 318 309 300 300
179 153 135 125 136 176 146 148 154 173 180 178 170 163 157 156 150 136 123 113 106 91 76 65 45 30 10 357 351 7 20 14 16 15 12 7 3 359 354 347 345 344 336 331 331 321 318 305 303
136 116 103 85 83 127 148 169 181 173 188 191 185 174 167 158 143 134 132 129 124 111 86 68 45 33 23 11 5 7 11 357 5 13 15 7 1 357 356 354 350 347 338 331 330 324 320 316 318
94 100 96 97 83 87 147 210 202 187 195 192 192 182 166 152 146 144 145 144 140 126 105 82 53 33 29 20 357 335 324 322 342 4 4 2 358 356 355 355 347 341 337 339 338 335 322 316 333
62 69 86 94 92 146 159 245 206 183 185 187 197 193 171 166 165 159 158 155 148 134 115 90 72 46 29 8 345 333 333 330 354 355 354 357 356 358 356 354 350 340 340 336 333 330 325 314 311
57 33 64 100 67 194 206 270 216 178 179 187 190 191 187 170 162 157 160 157 147 139 131 133 115 78 45 3 339 335 344 340 332 328 330 351 358 356 355 356 351 343 339 337 331 335 319 314 308
55 357 340 295 327 336 223 224 265 162 185 199 191 188 184 171 165 161 155 148 138 134 139 151 159 147 116 3 329 329 330 317 313 322 337 347 351 358 0 359 354 347 341 339 335 331 323 313 303
327 315 314 326 32 277 214 198 264 192 197 190 173 170 169 162 160 155 143 137 139 142 149 168 183 183 170 203 260 293 300 309 317 323 330 331 337 351 359 355 351 345 341 337 332 327 324 322 316
319 0 30 13 241 243 145 198 253 251 104 117 134 144 148 152 156 159 154 156 164 167 169 183 192 203 197 207 224 240 261 271 285 304 312 322 331 339 345 345 338 337 335 332 330 328 327 329 325
338 359 55 281 282 293 168 233 248 91 86 83 97 107 128 146 161 168 169 170 176 179 180 191 198 205 204 209 222 228 239 242 255 278 291 307 314 316 324 331 329 330 332 330 328 326 322 324 323
334 31 19 329 300 277 241 220 188 140 136 150 150 155 173 169 170 176 179 176 180 184 189 193 196 206 207 210 219 223 221 230 255 273 283 300 306 307 321 320 322 324 329 329 329 328 325 328 328
323 339 325 230 315 289 269 231 200 168 173 167 166 173 177 167 171 183 187 183 185 189 191 191 196 205 209 208 219 220 208 219 233 245 256 272 291 298 304 312 318 325 330 332 334 328 330 333 327
189 234 260 276 264 255 297 289 108 119 110 134 153 149 162 176 184 193 192 185 184 185 188 195 203 205 207 206 213 222 215 217 231 232 238 249 270 286 295 304 318 327 330 336 339 335 334 332 335
303 263 237 242 265 235 263 271 107 104 88 67 79 130 166 182 186 192 192 187 189 196 198 200 205 207 209 205 207 216 218 219 223 226 234 241 263 276 277 292 307 316 328 338 340 337 338 339 345
Height
1494 1497 1500 1504 1507 1506 1499 1488 1480 1481 1482 1485 1485 1487 1492 1500 1504 1518 1520 1519 1520 1521 1522 1524 1526 1528 1529 1531 1532 1534 1535 1536 1537 1538 1539 1539 1540 1540 1541 1541 1542 1542 1542 1542 1543 1543 1543 1543 1544
1494 1497 1501 1502 1502 1502 1492 1484 1481 1480 1483 1485 1488 1491 1496 1505 1510 1515 1517 1519 1520 1521 1522 1524 1526 1528 1530 1531 1533 1534 1535 1536 1537 1538 1539 1540 1540 1541 1541 1542 1542 1542 1543 1543 1543 1543 1543 1544 1544
1493 1496 1499 1497 1494 1491 1484 1478 1479 1481 1484 1488 1492 1496 1502 1509 1512 1514 1517 1519 1520 1521 1522 1524 1526 1528 1530 1532 1533 1534 1536 1537 1537 1538 1539 1540 1541 1541 1541 1542 1542 1543 1543 1543 1543 1543 1544 1544 1544
1493 1496 1496 1493 1488 1481 1477 1474 1476 1482 1487 1491 1494 1501 1507 1512 1513 1515 1517 1519 1520 1521 1523 1525 1526 1528 1530 1532 1533 1534 1535 1536 1537 1538 1539 1540 1540 1541 1542 1542 1542 1542 1543 1543 1543 1543 1543 1544 1544
1492 1493 1492 1490 1484 1478 1475 1475 1477 1483 1488 1492 1496 1503 1510 1513 1514 1515 1517 1519 1520 1521 1523 1525 1527 1528 1530 1531 1533 1534 1535 1536 1537 1538 1539 1540 1540 1541 1541 1542 1542 1542 1542 1543 1543 1543 1543 1543 1544
1491 1488 1489 1488 1483 1478 1477 1479 1481 1485 1490 1494 1498 1504 1512 1514 1515 1516 1517 1519 1520 1522 1523 1525 1527 1528 1530 1531 1532 1534 1535 1536 1537 1537 1538 1539 1540 1540 1541 1541 1541 1542 1542 1542 1542 1542 1543 1543 1543
1489 1486 1484 1481 1482 1480 1479 1480 1482 1486 1491 1496 1499 1505 1512 1514 1515 1516 1518 1519 1521 1522 1524 1525 1527 1528 1530 1531 1532 1533 1534 1535 1536 1537 1538 1538 1539 1539 1540 1540 1540 1540 1541 1541 1541 1541 1542 1542 1542
1487 1486 1482 1478 1480 1480 1479 1482 1484 1487 1492 1497 1500 1504 1510 1513 1515 1516 1518 1520 1521 1522 1524 1525 1527 1528 1529 1531 1532 1533 1534 1535 1535 1536 1537 1537 1538 1538 1538 1539 1539 1539 1539 1540 1540 1540 1540 1540 1540
1487 1489 1483 1478 1479 1480 1481 1484 1489 1490 1494 1499 1502 1503 1508 1512 1515 1517 1518 1520 1521 1523 1524 1525 1527 1528 1529 1530 1531 1532 1533 1534 1534 1535 1536 1536 1536 1537 1537 1537 1537 1537 1538 1538 1538 1538 1538 1538 1539
1487 1488 1483 1479 1478 1480 1483 1487 1491 1495 1498 1503 1506 1507 1510 1512 1515 1517 1519 1520 1522 1523 1524 1525 1526 1527 1528 1529 1530 1531 1532 1532 1533 1533 1534 1534 1535 1535 1535 1536 1536 1536 1536 1536 1536 1536 1536 1536 1536
1485 1485 1484 1481 1479 1482 1486 1490 1493 1496 1500 1503 1506 1508 1511 1513 1515 1517 1519 1521 1522 1523 1524 1525 1526 1527 1528 1528 1529 1530 1530 1531 1531 1532 1532 1533 1533 1533 1534 1534 1533 1533 1533 1533 1533 1533 1533 1533 1533
1487 1486 1486 1486 1485 1487 1489 1492 1496 1497 1501 1504 1506 1509 1511 1513 1516 1517 1519 1521 1522 1522 1524 1525 1525 1526 1527 1527 1528 1528 1529 1529 1530 1530 1531 1531 1531 1531 1531 1532 1531 1531 1531 1531 1531 1530 1530 1530 1530
1488 1489 1490 1489 1489 1491 1493 1496 1498 1501 1503 1506 1508 1510 1512 1514 1516 1518 1520 1521 1522 1523 1523 1524 1525 1525 1526 1526 1526 1527 1527 1528 1528 1528 1529 1529 1529 1529 1529 1529 1529 1529 1528 1528 1528 1528 1528 1527 1528
1489 1491 1492 1492 1493 1494 1496 1499 1501 1505 1506 1508 1510 1511 1513 1515 1517 1518 1520 1521 1522 1522 1523 1524 1524 1525 1525 1525 1525 1526 1526 1526 1526 1527 1527 1527 1527 1527 1527 1527 1526 1526 1526 1526 1525 1525 1525 1524 1524
1490 1492 1494 1495 1495 1497 1498 1503 1504 1506 1507 1509 1511 1512 1514 1516 1517 1518 1519 1520 1521 1522 1523 1523 1523 1524 1524 1524 1524 1524 1524 1524 1525 1525 1525 1525 1525 1525 1525 1524 1524 1524 1523 1523 1522 1522 1522 1521 1520
1491 1493 1498 1498 1497 1498 1502 1507 1505 1506 1507 1509 1511 1513 1514 1516 1517 1518 1519 1520 1521 1522 1522 1522 1523 1523 1522 1523 1523 1523 1523 1522 1523 1523 1523 1523 1522 1522 1522 1522 1521 1521 1520 1520 1519 1519 1518 1517 1517
1492 1496 1498 1499 1497 1497 1500 1505 1505 1506 1507 1509 1511 1513 1514 1516 1517 1518 1519 1519 1520 1521 1521 1521 1522 1522 1521 1521 1522 1521 1521 1521 1521 1521 1521 1520 1520 1520 1519 1519 1519 1518 1517 1517 1516 1515 1515 1514 1513
1496 1494 1496 1499 1498 1497 1500 1504 1505 1505 1506 1508 1510 1511 1513 1515 1516 1517 1518 1519 1519 1520 1520 1520 1520 1520 1520 1520 1520 1520 1519 1519 1519 1519 1519 1518 1518 1517 1517 1516 1516 1515 1515 1514 1513 1512 1512 1511 1509
1488 1491 1496 1499 1498 1499 1502 1503 1503 1504 1505 1506 1508 1510 1512 1514 1515 1516 1517 1518 1518 1519 1519 1519 1519 1519 1519 1519 1518 1518 1518 1518 1518 1517 1516 1516 1515 1515 1514 1514 1513 1513 1512 1511 1510 1509 1508 1507 1506
1490 1495 1500 1501 1499 1500 1502 1503 1501 1502 1503 1505 1506 1508 1510 1512 1514 1515 1516 1516 1517 1518 1518 1518 1518 1517 1517 1517 1517 1516 1516 1516 1516 1516 1515 1514 1514 1513 1512 1511 1511 1510 1509 1508 1507 1506 1505 1504 1504
1495 1499 1501 1502 1501 1500 1503 1505 1500 1499 1501 1503 1505 1506 1508 1510 1512 1513 1514 1515 1515 1516 1516 1517 1516 1516 1516 1516 1515 1515 1514 1514 1514 1513 1513 1512 1511 1510 1510 1509 1508 1507 1507 1505 1505 1504 1503 1502 1502
1502 1500 1500 1502 1506 1508 1504 1514 1499 1497 1499 1501 1503 1504 1506 1508 1510 1511 1512 1513 1514 1514 1515 1515 1515 1515 1515 1514 1514 1513 1513 1512 1512 1511 1510 1510 1509 1508 1507 1506 1505 1505 1504 1503 1502 1501 1500 1499 1498
1505 1502 1502 1502 1504 1508 1505 1511 1504 1494 1499 1499 1500 1502 1504 1506 1508 1509 1510 1511 1512 1512 1513 1513 1513 1513 1513 1512 1512 1511 1511 1510 1509 1509 1508 1507 1506 1505 1504 1503 1502 1502 1501 1500 1499 1498 1497 1496 1495
1505 1504 1503 1503 1508 1515 1505 1510 1507 1497 1495 1494 1496 1499 1502 1504 1506 1507 1508 1509 1510 1510 1511 1511 1511 1511 1511 1510 1510 1509 1509 1508 1507 1507 1506 1505 1504 1503 1502 1501 1500 1499 1498 1497 1496 1495 1495 1494 1493
1507 1511 1516 1518 1518 1515 1504 1509 1506 1493 1491 1492 1495 1497 1500 1502 1504 1505 1506 1507 1507 1508 1508 1509 1509 1508 1508 1508 1507 1507 1506 1506 1505 1504 1503 1502 1501 1500 1499 1498 1497 1496 1495 1494 1493 1492 1491 1490 1490
1509 1511 1521 1523 1519 1513 1510 1512 1501 1491 1491 1493 1495 1497 1499 1501 1502 1503 1504 1505 1505 1506 1506 1506 1506 1506 1505 1505 1504 1504 1503 1503 1502 1501 1500 1499 1498 1497 1496 1495 1494 1493 1492 1491 1490 1489 1488 1487 1487
1511 1513 1513 1519 1516 1518 1509 1498 1494 1492 1493 1494 1496 1497 1498 1500 1501 1502 1502 1503 1503 1503 1503 1504 1503 1503 1503 1502 1501 1501 1500 1500 1499 1499 1498 1497 1495 1494 1493 1492 1491 1490 1489 1488 1487 1486 1485 1484 1483
1515 1513 1516 1519 1521 1518 1505 1499 1501 1495 1494 1494 1495 1496 1497 1498 1499 1500 1500 1500 1501 1501 1501 1501 1500 1500 1499 1499 1498 1498 1497 1497 1496 1496 1495 1494 1493 1492 1490 1489 1488 1487 1486 1485 1484 1483 1482 1481 1480
1516 1515 1514 1516 1516 1521 1516 1507 1493 1493 1492 1493 1494 1495 1496 1496 1497 1498 1498 1498 1498 1498 1498 1498 1497 1497 1496 1496 1495 1495 1494 1494 1493 1492 1492 1491 1490 1489 1488 1487 1485 1484 1483 1482 1481 1480 1479 1478 1477
1512 1511 1513 1521 1518 1515 1519 1512 1491 1491 1491 1493 1493 1494 1495 1495 1495 1495 1496 1496 1495 1495 1495 1494 1494 1494 1493 1493 1492 1491 1491 1490 1490 1489 1488 1488 1487 1486 1485 1484 1483 1481 1480 1479 1478 1477 1476 1475 1474